Date,TemperatureHighF,TemperatureAvgF,TemperatureLowF,DewpointHighF,DewpointAvgF,DewpointLowF,HumidityHigh,HumidityAvg,HumidityLow,PressureMaxIn,PressureMinIn,WindSpeedMaxMPH,WindSpeedAvgMPH,GustSpeedMaxMPH,PrecipitationSumIn
2013-6-1,92,78,66,74,68,64,96,73,44,29.91,29.78,1,0,4,0.00
2013-6-2,90,76,67,75,68,66,98,80,48,29.81,29.63,2,0,8,0.01
2013-6-3,79,68,57,70,61,48,99,80,57,29.79,29.70,1,0,3,0.17
2013-6-4,68,60,53,51,47,42,79,64,48,30.06,29.79,3,0,10,0.00
2013-6-5,53,51,50,48,46,46,87,85,78,30.07,30.06,0,0,1,0.00
2013-6-7,51,50,50,50,50,50,99,99,99,29.88,29.83,1,0,3,1.37
2013-6-8,75,62,51,67,58,50,99,88,70,29.96,29.63,2,0,5,0.91
2013-6-9,77,67,55,61,58,54,98,73,52,30.12,29.96,2,0,8,0.00
2013-6-10,69,63,57,62,59,55,98,86,76,30.17,29.99,1,0,5,0.23
2013-6-11,60,56,54,58,56,53,99,98,92,29.99,29.56,1,0,5,1.27
2013-6-12,66,58,54,58,55,53,99,92,74,29.78,29.53,4,1,7,0.01
2013-6-13,58,56,54,53,53,52,98,89,84,29.77,29.68,0,0,0,0.39
2013-6-14,74,64,53,61,56,52,99,78,53,29.74,29.64,2,0,7,0.47
2013-6-15,65,63,61,56,54,51,73,71,68,29.78,29.74,1,0,4,0.00
2013-6-16,75,69,61,63,60,51,84,73,55,29.88,29.66,1,0,2,0.00
2013-6-17,82,69,59,70,62,58,98,81,55,29.86,29.73,3,0,9,0.14
2013-6-18,66,60,57,62,58,55,99,93,82,29.93,29.84,1,0,4,0.02
2013-6-19,74,62,52,56,52,48,97,72,42,30.11,29.89,2,0,6,0.01
2013-6-20,78,68,54,59,53,46,79,61,45,30.21,30.11,1,0,5,0.00
2013-6-21,82,73,59,63,58,52,86,62,38,30.20,30.15,1,0,4,0.00
2013-6-22,82,75,60,72,67,56,89,76,62,30.16,30.05,1,0,4,0.00
2013-6-23,88,80,73,78,73,69,90,78,67,30.06,29.92,1,0,2,0.03
2013-6-24,91,79,68,76,72,67,97,79,54,29.95,29.82,2,0,7,0.04
2013-6-25,89,80,68,76,72,67,98,80,63,29.87,29.67,1,0,4,0.50
2013-6-26,79,71,66,74,70,66,99,96,80,29.81,29.69,0,0,2,0.49
2013-6-27,69,64,60,68,63,60,100,99,96,29.83,29.72,0,0,2,0.05
2013-6-28,71,63,56,71,63,56,100,100,99,29.73,29.44,1,0,2,1.03
2013-6-29,82,73,68,75,70,67,100,91,73,29.66,29.46,1,0,3,0.01
2013-6-30,83,72,66,76,70,66,99,93,73,29.88,29.66,1,0,4,0.10